Regional Weather Roundup
Issued by NWS Newport/Morehead, NC

Current Version | Previous Version | Graphics & Text | Print | Product List | Glossary Off
Versions: 1 2 3 4 5 6 7 8 9 10 11 12 13 14 15 16 17 18 19 20 21 22 23 24 25 26 27 28 29 30 31 32 33 34 35 36 37 38 39 40 41 42 43 44 45 46 47 48 49 50

000
ASUS42 KMHX 022025
RWRMHX
WEATHER ROUNDUP FOR EASTERN NORTH CAROLINA
NATIONAL WEATHER SERVICE NEWPORT/MOREHEAD CITY NC
400 PM EDT TUE JUN 02 2015

NOTE: "FAIR" INDICATES FEW OR NO CLOUDS BELOW 12,000 FEET
WITH NO SIGNIFICANT WEATHER AND/OR OBSTRUCTIONS TO VISIBILITY

NCZ015>017-031-032-045>047-102-103-022100-
NORTH COAST

CITY           SKY/WX    TMP DP  RH WIND       PRES   REMARKS
EDENTON        LGT RAIN  71  68  89 CALM      29.99S
ELIZABETH CITY LGT RAIN  70  68  93 NE9       30.00S
KITTY HAWK     MOCLDY    81  67  61 SW3       29.97S
MANTEO         LGT RAIN  74  69  83 NW12G20   30.01R

$$

NCZ045>047-081-094-103-104-022100-
CENTRAL COAST

CITY           SKY/WX    TMP DP  RH WIND       PRES   REMARKS
FRISCO         MOSUNNY   82  69  64 SW10      30.00S
SWANQUARTER      N/A     72 N/A N/A NW12      29.97S

$$

NCZ095-097-098-100-101-022100-
SOUTHERN COAST

CITY           SKY/WX    TMP DP  RH WIND       PRES   REMARKS
BEAUFORT       MOSUNNY   81  73  76 SW10      29.99F
CEDAR ISLAND     N/A     77 N/A N/A NW24      30.03S
JACKSONVILLE   PTSUNNY   81  68  64 N3        29.98F THUNDER
PINEY ISLAND   MOCLDY   N/A N/A N/A NW20      30.00R
WILMINGTON     CLOUDY    75  68  78 W12       29.98S THUNDER


$$

NCZ011>013-027>030-043-044-078>080-089-090>093-098-022100-
COASTAL PLAIN

CITY           SKY/WX    TMP DP  RH WIND       PRES   REMARKS
AHOSKIE        MOSUNNY   76  70  81 NE5       29.98S
CLINTON        RAIN      68  67  98 CALM      29.99F
ELIZABETHTOWN  LGT RAIN  73  70  88 S3        29.97F
GOLDSBORO      PTSUNNY   79  70  73 SE1       29.95F
GREENVILLE     PTSUNNY   77  72  83 S6        30.00F
HAVELOCK       PTSUNNY   75  67  76 N5        30.01S
KENANSVILLE    LGT RAIN  71  69  92 S3        30.00F
KINSTON        CLOUDY    73  70  88 SE9       29.99F
NEW BERN       LGT RAIN  73  69  87 NE7       30.01F
RICHLANDS      PTSUNNY   75  66  73 SW5       29.99S
ROCKY MOUNT    PTSUNNY   81  68  64 S6        29.97F
WASHINGTON     RAIN      71  69  94 SE5       29.99F
WHITEVILLE     LGT RAIN  76  69  78 S7        29.97F

$$

AMZ130-135-150-152-154-156-158-170-250-252-270-ANZ085-086-088-633-658-670-022100-
MARINE OBSERVATIONS

STATION/POSITION TIME  TEMP    WIND        PRES    WAVE   SWELL
                       AIR SEA DIR/SP/G            HT/PER HT/PER
                 (UTC) (F)     (DEG/KT/KT) (MB)    (FT/S) (FT/S)
CHESAPEAKE LIGHT 2000   68     330/  8/  8 1016.9
64 E VA BEACH    1950   74 73  160/  6/  6 1015.4    3/ 8   3/ 8
DUCK             2000   68 56  330/ 21/ 25 1014.5
2 E DUCK         1911      66                N/A     3/ 8
OREGON INLET     2000   79 82  190/ 14/ 18 1015.4
13E OREGON INLT  2000      77                N/A     3/ 8
HATTERAS CG      2000   81 78  200/  7/ 13 1015.5
DIAMOND BUOY     1950   79 82  210/ 10/ 12 1015.8    2/ 8   2/ 8
CAPE LOOKOUT     2000   79     200/ 10/ 11 1015.4
BEAUFORT LAB     2000   79 80  200/  9/ 11 1014.8
30 SE NEW RVR IN NOT AVBL
27 SE WRIGHTSVLE 2000      78  190/  8/  8   N/A
5 SE WRIGHTSVLE  1908   78 79  200/ 14/ 17 1015.2
225 S CAPE HAT   1950   78 80  190/  6/  6 1016.7    3/ 8   3/ 8
41 SE CHARLESTON 1950   79 81  170/  4/  6 1015.0    3/ 8   2/ 8

$$


USA.gov is the U.S. government's official web portal to all federal, state and local government web resources and services.